Theta_e
294 289 286 289 290 290 288 287 286 290 295 291 291 290 293 297 294 293 294 293 292 292 294 294 294 294 294 295 296 296 298 299 301 304 305 306 307 308 310 311 312 312 311 311
290 286 293 294 294 292 290 287 286 290 293 291 290 289 293 292 291 293 291 291 291 291 291 292 292 292 292 292 293 294 295 296 298 300 299 301 302 301 302 303 307 309 308 308
288 292 296 294 292 291 289 288 287 288 289 290 286 286 289 291 292 292 291 291 291 290 290 290 290 290 291 291 290 292 293 295 295 296 298 298 298 298 298 298 299 301 306 305
291 295 294 292 290 291 287 292 291 289 284 281 286 278 285 288 288 289 289 288 288 289 290 291 290 290 290 290 291 291 292 293 294 294 294 293 292 292 294 295 296 298 300 303
291 290 289 289 290 292 289 291 289 287 284 282 283 280 283 288 286 286 287 288 289 290 290 289 289 290 290 289 289 289 290 291 292 292 292 291 290 291 292 292 292 293 295 297
290 292 291 291 292 291 291 288 287 285 283 278 284 282 283 285 287 286 288 289 289 288 288 288 289 290 289 289 288 289 289 289 290 291 291 290 289 290 289 290 289 291 292 293
289 289 291 292 288 290 288 284 279 277 276 278 285 283 286 288 289 289 288 286 286 286 286 286 287 287 288 287 287 289 288 287 288 288 289 289 289 288 288 288 288 288 288 289
285 284 289 292 291 288 286 286 278 270 275 277 284 280 284 288 289 288 287 286 286 285 286 286 287 287 287 287 287 287 287 287 287 287 287 287 288 288 287 287 287 286 286 288
286 286 290 291 291 292 287 284 288 281 277 273 281 284 288 288 286 285 284 285 284 284 285 285 285 286 286 285 286 286 287 286 286 285 286 286 286 286 285 284 283 284 285 286
290 285 290 288 290 288 287 288 281 280 268 268 278 279 281 284 284 284 284 284 284 284 284 283 284 284 284 284 284 285 285 285 285 285 285 286 286 287 286 284 282 282 282 283
291 288 286 289 287 286 284 283 283 284 280 274 272 277 286 287 285 284 285 285 284 283 282 283 283 283 284 283 283 283 283 284 284 284 283 284 284 284 285 284 284 283 281 282
291 285 282 284 290 289 288 285 285 281 275 281 279 280 288 287 287 286 286 285 284 283 282 282 283 283 283 283 282 282 283 282 284 283 284 283 283 282 282 282 282 281 281 281
291 281 271 276 283 286 285 286 287 285 284 276 274 277 286 285 286 286 283 282 283 283 280 280 280 280 281 281 282 282 282 281 282 282 281 280 280 280 280 280 281 281 280 279
294 284 277 275 279 283 279 282 284 284 274 274 277 278 283 283 284 282 281 280 279 279 280 280 280 280 280 281 280 280 281 281 281 281 280 279 279 279 279 279 279 280 280 279
287 276 281 281 282 281 280 280 280 278 279 273 278 277 280 282 281 281 280 279 278 278 278 278 279 279 279 279 279 280 280 281 281 280 280 280 280 280 279 279 279 279 279 279
284 273 276 268 279 279 278 279 279 279 279 278 279 278 284 281 278 277 277 278 278 278 279 280 279 279 279 279 279 280 280 280 280 278 279 280 280 281 280 280 280 280 279 279
278 274 265 264 275 272 267 274 277 278 278 278 274 279 276 277 277 276 277 277 277 278 278 278 279 279 279 279 280 279 279 279 279 279 279 279 280 279 279 279 279 279 278 278
277 271 265 260 261 257 273 276 277 277 278 276 274 272 276 276 277 277 278 276 277 278 279 279 279 279 279 279 278 278 278 278 278 277 276 277 277 277 277 277 276 276 276 276
280 277 264 263 256 267 273 275 273 271 270 271 272 272 276 277 275 273 278 279 279 279 279 279 279 279 277 277 277 276 276 276 275 274 274 274 273 271 271 270 271 271 271 271
276 281 275 255 259 257 269 272 276 275 266 271 270 271 275 275 268 271 277 279 280 279 279 278 276 277 276 275 274 273 272 272 271 271 271 270 269 267 267 267 266 267 266 267
263 262 270 269 261 264 272 275 276 264 269 271 273 276 276 273 274 277 279 279 278 278 276 275 274 274 274 273 272 270 269 268 269 268 268 267 266 264 264 263 263 263 263 263
266 263 260 260 264 262 274 274 270 273 276 275 277 277 276 277 278 278 278 277 276 275 274 274 271 271 271 271 269 267 266 268 267 266 264 263 262 262 262 260 261 261 260 260
266 269 265 267 267 275 275 276 279 279 275 278 277 278 278 277 277 277 276 276 275 272 273 271 268 268 268 268 266 264 265 265 264 261 260 260 260 261 261 260 260 259 260 259
271 274 270 269 273 275 277 278 279 279 278 279 279 278 277 276 277 276 274 274 272 271 270 268 266 265 265 264 265 261 263 263 260 258 259 260 260 259 260 260 260 259 259 259
273 273 271 269 275 276 276 277 278 278 279 278 278 278 278 276 273 273 271 269 270 269 268 266 264 264 263 263 262 259 261 260 259 259 260 259 259 258 259 259 259 260 261 262
275 275 272 269 277 275 276 278 279 278 278 278 277 273 273 274 272 270 269 268 267 266 265 264 263 262 261 260 259 259 258 258 258 258 259 259 259 258 259 258 259 264 266 268
Wind_Speed
3 4 7 11 9 5 3 5 5 6 8 4 7 7 10 17 4 7 15 15 14 14 12 15 17 18 18 19 19 18 18 15 11 5 4 4 3 3 3 3 1 3 3 5
3 6 12 5 6 5 4 4 6 4 2 4 7 12 12 12 10 17 14 13 11 12 15 16 16 17 17 16 16 18 17 17 13 8 4 4 3 3 4 4 6 5 0 3
9 8 6 4 3 5 3 5 4 5 3 5 4 8 7 8 15 16 14 12 12 13 12 13 15 13 13 16 15 15 15 14 14 12 9 7 5 4 6 6 5 6 6 0
7 7 5 7 6 7 5 7 7 4 3 4 4 5 2 8 11 11 9 10 10 10 11 11 11 13 13 11 10 13 14 15 14 14 10 11 6 5 4 4 4 8 9 6
6 6 5 4 7 8 7 2 3 2 3 2 5 3 6 9 4 6 5 8 8 9 10 10 9 9 9 8 9 8 12 14 13 13 13 9 10 6 5 7 9 9 9 10
5 2 3 7 3 2 2 1 3 2 4 1 6 7 4 7 10 7 7 8 9 9 8 9 7 7 8 8 7 9 12 13 12 11 12 13 12 10 9 10 9 8 7 7
3 5 2 2 2 4 3 4 3 4 1 6 1 2 6 3 9 12 13 10 8 8 7 7 8 8 8 10 10 10 12 13 12 12 12 11 10 9 9 8 7 9 9 8
4 6 8 4 5 6 5 7 6 6 2 4 8 6 5 10 16 15 12 8 7 7 6 7 6 6 6 7 7 7 8 9 9 10 10 8 8 6 5 6 6 5 5 6
6 5 3 3 1 5 4 4 3 2 2 3 5 2 4 8 12 12 10 8 7 6 5 6 6 6 7 7 7 7 7 7 7 7 6 6 6 6 5 6 4 3 4 6
3 2 1 2 2 2 3 3 1 3 0 4 4 5 5 9 11 10 8 7 6 6 6 6 5 6 5 5 4 5 4 4 3 5 6 5 6 7 6 6 7 6 5 5
4 4 4 3 4 6 1 1 2 3 5 6 3 6 2 14 13 10 8 10 10 8 7 6 5 4 5 3 3 2 2 2 2 1 2 3 4 5 5 5 6 6 7 8
1 5 3 9 5 3 3 5 6 4 4 4 1 9 4 14 12 12 10 8 7 8 7 6 6 5 4 3 2 4 3 0 2 2 3 4 4 5 5 6 6 7 7 6
6 1 2 9 4 3 3 2 4 4 3 7 5 7 3 6 5 5 8 7 7 6 7 6 6 5 5 5 4 4 4 5 5 5 6 6 7 8 7 7 8 7 6 6
3 3 7 9 4 2 2 3 4 5 1 2 8 6 11 8 6 7 8 7 7 7 6 6 6 7 7 7 6 6 6 6 5 4 5 6 7 7 6 6 7 7 8 10
4 5 2 3 2 0 4 11 3 7 7 7 19 12 19 13 3 8 9 7 6 4 3 4 3 5 7 6 7 7 7 7 5 6 6 7 7 6 7 7 8 8 9 10
3 3 2 5 4 5 10 18 10 14 16 13 16 21 12 1 6 7 7 7 5 4 5 5 4 4 4 5 6 7 7 6 4 6 7 7 7 10 11 10 11 12 13 13
6 6 4 8 2 5 9 16 18 11 10 7 10 13 1 4 6 6 5 3 4 5 4 4 5 6 6 5 5 4 5 6 7 7 10 12 12 14 15 15 16 17 17 16
7 7 4 4 5 2 8 3 5 11 9 6 2 4 7 5 6 6 5 3 3 4 5 6 5 3 3 3 6 6 6 6 6 8 8 9 12 13 14 15 16 17 16 18
4 6 2 5 6 7 12 7 7 8 9 5 6 5 5 5 3 2 4 5 5 7 7 4 2 4 5 5 5 5 5 5 8 10 10 8 9 11 14 15 18 18 17 18
3 5 8 3 6 11 7 3 4 5 8 8 5 4 6 5 1 5 6 6 8 6 1 4 4 4 4 3 4 6 6 6 8 9 10 11 12 12 13 14 17 18 17 20
4 1 16 12 6 9 8 6 4 6 9 3 6 6 7 5 7 6 4 7 1 4 4 4 4 4 3 3 4 7 7 8 8 10 11 12 12 14 14 16 14 16 17 18
9 9 5 3 4 10 8 4 8 8 2 5 6 6 6 7 8 6 8 5 6 3 2 3 4 3 3 3 6 8 8 9 10 11 12 13 13 11 12 15 14 15 15 17
2 9 9 12 9 6 8 7 7 5 6 6 7 9 9 7 7 8 6 6 4 4 2 3 3 4 2 2 3 8 10 11 11 11 12 13 13 13 13 14 15 13 14 13
6 4 4 5 6 8 10 7 7 8 8 9 9 9 7 9 8 6 4 3 3 3 3 3 4 6 6 2 5 5 9 10 10 12 13 13 13 13 13 11 11 12 12 12
8 5 6 3 7 8 8 9 10 10 10 8 6 8 7 6 3 4 4 3 2 1 2 3 4 6 8 8 7 5 8 8 10 12 13 13 11 13 13 12 12 12 14 15
7 12 7 9 13 7 7 7 7 8 10 10 8 3 3 6 7 5 4 3 1 1 3 5 5 6 8 8 9 8 6 7 10 12 10 11 12 11 12 12 12 23 29 32
Wind_Direction
211 115 201 218 201 211 269 240 242 255 279 328 286 289 292 275 291 296 89 83 77 66 51 42 36 34 32 32 31 28 33 20 28 18 32 46 59 23 8 7 69 159 175 191
71 217 228 223 219 219 236 273 278 287 314 350 301 299 300 41 64 84 84 76 73 65 51 45 38 35 34 32 31 32 30 29 24 25 12 33 45 39 60 10 11 345 183 197
176 214 177 190 287 294 263 228 215 235 303 285 314 297 113 69 69 73 70 83 77 69 63 49 42 35 35 36 27 31 31 33 34 28 26 26 25 27 18 12 7 349 340 253
237 237 220 261 234 178 243 227 191 222 87 217 95 278 252 107 73 64 68 69 75 71 63 59 50 42 37 27 32 37 35 30 30 32 45 51 52 38 349 356 350 3 1 346
254 173 165 173 220 168 232 109 197 196 187 29 285 132 269 125 103 115 109 90 79 78 80 69 55 50 44 38 33 29 41 40 35 38 42 41 40 29 12 17 15 8 3 1
232 329 178 208 208 158 122 0 306 76 123 279 240 161 253 183 173 160 145 115 92 75 65 69 60 53 44 33 42 42 37 33 29 34 40 45 40 30 27 20 18 11 7 4
303 212 257 176 99 36 87 66 324 355 22 220 246 269 244 325 134 127 117 102 89 81 65 62 59 52 51 39 32 38 38 36 25 24 28 32 32 30 34 23 16 10 0 358
183 311 154 185 187 188 177 166 158 221 217 250 346 271 351 65 88 93 90 90 83 75 78 72 69 67 62 57 56 52 47 39 25 21 17 19 33 29 15 18 16 11 3 340
186 233 125 91 148 149 194 167 181 121 84 49 221 115 72 94 95 102 109 105 104 96 88 86 73 67 62 47 51 55 47 32 27 14 10 12 10 21 16 6 357 347 340 344
193 268 297 185 107 31 147 169 61 8 210 260 275 244 188 170 139 132 140 136 130 125 113 103 92 83 76 67 60 64 72 82 49 15 9 348 350 353 356 352 344 339 334 328
125 113 264 115 202 177 75 183 153 143 146 186 260 255 237 160 150 153 162 170 168 158 146 133 120 106 98 86 77 95 98 170 130 153 339 319 327 325 325 307 296 322 328 328
80 131 204 226 277 90 191 221 173 169 235 248 241 266 91 136 161 168 180 168 164 154 152 151 150 145 154 164 192 198 204 193 236 238 279 287 282 285 276 280 269 260 263 290
176 227 16 339 353 26 109 122 105 101 121 212 202 256 178 122 139 172 174 179 172 156 160 170 162 186 196 212 224 233 233 232 222 213 222 228 228 231 239 240 239 246 256 254
90 154 170 213 163 105 280 237 134 130 211 203 237 276 227 214 234 196 197 185 164 172 189 195 204 209 216 226 238 251 260 250 257 247 255 271 278 279 276 285 290 285 277 276
98 180 246 263 110 82 235 267 204 194 220 207 267 255 267 292 284 193 178 163 160 158 170 180 198 235 251 259 259 261 257 255 260 272 274 270 273 271 280 290 291 286 283 277
19 225 99 307 282 220 258 263 256 241 248 241 250 266 281 28 96 98 123 138 161 218 240 240 256 275 277 273 267 269 261 273 303 298 297 299 304 305 300 296 291 288 285 285
131 128 77 270 328 47 303 240 229 230 212 204 222 245 122 229 147 153 152 189 241 274 249 237 247 247 260 286 296 288 336 351 342 327 317 315 310 307 305 304 301 297 296 296
141 118 116 219 36 278 248 287 201 216 245 187 199 229 220 211 143 158 199 187 187 224 247 253 251 278 337 27 33 359 351 335 320 308 306 307 306 303 309 311 308 306 305 300
178 161 154 159 197 301 295 239 194 168 268 193 193 232 217 172 92 298 167 178 208 226 234 229 90 69 67 33 8 359 338 322 317 311 307 322 338 322 314 307 305 307 307 300
160 209 192 108 180 213 242 252 160 107 279 226 157 211 176 135 177 243 242 234 262 251 132 89 72 91 77 51 26 338 320 321 315 323 321 314 309 303 302 300 298 296 293 291
108 31 218 217 223 278 241 210 162 103 266 213 179 195 178 183 200 221 252 275 358 96 77 55 52 51 63 18 354 335 328 317 323 315 308 308 307 302 296 294 292 292 291 289
159 161 196 105 217 266 187 89 156 212 223 182 190 190 200 229 251 261 256 188 145 131 73 66 59 43 15 11 348 331 324 325 319 315 311 304 299 295 294 291 290 287 286 285
210 190 179 180 205 224 199 191 213 167 160 201 201 226 213 233 244 245 215 192 144 129 107 78 49 344 7 25 346 324 323 323 321 315 304 300 297 294 291 291 289 289 283 281
278 153 194 92 229 219 205 228 229 204 219 223 218 227 211 222 235 217 172 136 81 84 54 40 360 334 329 337 332 292 316 318 312 303 301 300 300 301 295 291 289 287 285 283
203 138 190 259 266 266 266 230 231 229 232 233 226 208 213 203 173 149 150 139 114 38 22 11 336 321 315 323 317 298 310 304 300 301 301 301 301 299 296 288 287 283 280 280
185 223 212 226 232 192 227 223 214 215 236 234 198 167 162 163 166 147 165 156 137 15 344 338 329 316 308 309 308 310 295 284 290 299 304 305 302 297 295 293 290 288 293 296